Location: Berbisdorf
(50.7638°N, 12.9442°E)
Time: 01:28:40
(UTC+00:00)

BREEZE-M DEB (TANK) - Pass Details

Date: 07 June 2020
Orbit: 325 x 12053 km, 49.6° (Epoch: 15 July)

Event Time Altitude Azimuth Distance (km) Brightness Sun altitude
Rises 01:23:48 0° 275° (W) 2,374 5.1 -10.5°
Reaches altitude 10° 01:25:54 10° 271° (W) 1,296 3.7 -10.3°
Maximum altitude 01:28:14 60° 190° (S) 385 1.1 -10.1°
Drops below altitude 10° 01:30:56 10° 108° (ESE) 1,493 4.5 -9.9°
Sets 01:33:33 0° 105° (ESE) 2,833 6.0 -9.7°
